Farmington, MO

8:18 AM CST on November 13, 2019 (GMT -0600)
Farmington Regional

Weather History for KFAM - June, 2019

Change the Weather History Date:

Saturday, June 1, 2019

  Actual Average Record
Temperature  
Mean Temperature 70 °F -  
Max Temperature 84 °F 75 °F 90 °F (2018)
Min Temperature 57 °F 56 °F 48 °F (2012)
Cooling Degree Days 6    
Growing Degree Days 20 (Base 50)    
Moisture  
Dew Point 62 °F    
Average Humidity 80    
Maximum Humidity 100    
Minimum Humidity 51    
Precipitation  
Precipitation 1.04 in - - ()
Sea Level Pressure  
Sea Level Pressure 29.91 in    
Wind  
Wind Speed 3 mph (WSW)    
Max Wind Speed 25 mph    
Max Gust Speed 48 mph    
Visibility 7 miles    
Events Rain , Thunderstorm    
Averages and records for this station are not official NWS values.
T = Trace of Precipitation, MM = Missing Value Source: NWS Daily Summary

Daily Weather History Graph

Daily Weather History Graph

Search for Another Location

Airport or City:

Astronomy

Jun. 01, 2019 Rise Set
Actual Time 5:41 AM CDT 8:17 PM CDT
Civil Twilight 5:10 AM CDT 8:48 PM CDT
Nautical Twilight 4:32 AM CDT 9:26 PM CDT
Astronomical Twilight 3:50 AM CDT 10:09 PM CDT
Moon 4:43 AM CDT (6/1) 6:34 PM CDT (6/1)
Length of Visible Light 15h 37m
Length of Day
14h 36m
Waning Crescent, 4% of the Moon is Illuminated
Jun 1
Waning Crescent
Jun 3
New
Jun 10
First Quarter
Jun 17
Full
Jun 25
Last Quarter

Hourly Weather History & Observations

Time (CDT) Temp. Heat Index Dew Point Humidity Pressure Visibility Wind Dir Wind Speed Gust Speed Precip Events Conditions
12:56 AM 61.0 °F - 60.1 °F 97% 29.94 in 10.0 mi Calm Calm - N/A   Clear
1:56 AM 60.1 °F - 59.0 °F 96% 29.92 in 9.0 mi Calm Calm - N/A   Clear
2:56 AM 59.0 °F - 59.0 °F 100% 29.93 in 10.0 mi Calm Calm - N/A   Clear
3:48 AM 59.0 °F - 57.2 °F 94% 29.95 in 1.5 mi Calm Calm - N/A   Clear
3:56 AM 59.0 °F - 57.9 °F 96% 29.93 in 1.5 mi Calm Calm - N/A   Clear
3:58 AM 59.0 °F - 57.2 °F 94% 29.95 in 5.0 mi Calm Calm - N/A   Clear
4:56 AM 57.9 °F - 57.9 °F 100% 29.93 in 5.0 mi Calm Calm - N/A   Clear
5:05 AM 57.2 °F - 57.2 °F 100% 29.95 in 1.8 mi Calm Calm - N/A   Clear
5:14 AM 57.2 °F - 57.2 °F 100% 29.95 in 4.0 mi Calm Calm - N/A   Clear
5:52 AM 57.2 °F - 57.2 °F 100% 29.96 in 2.5 mi Calm Calm - N/A   Clear
5:56 AM 57.0 °F - 57.0 °F 100% 29.94 in 4.0 mi Calm Calm - N/A   Clear
6:56 AM 59.0 °F - 57.9 °F 96% 29.95 in 10.0 mi Calm Calm - N/A   Clear
7:56 AM 64.0 °F - 61.0 °F 90% 29.95 in 10.0 mi Calm Calm - N/A   Clear
8:12 AM 66.2 °F - 62.6 °F 88% 29.97 in 10.0 mi Calm Calm - N/A   Partly Cloudy
8:56 AM 71.1 °F - 63.0 °F 75% 29.96 in 10.0 mi Variable 3.5 mph - N/A   Clear
9:49 AM 75.2 °F - 62.6 °F 65% 29.96 in 10.0 mi Variable 4.6 mph - N/A   Partly Cloudy
9:56 AM 75.9 °F - 63.0 °F 64% 29.94 in 10.0 mi SW 4.6 mph - N/A   Partly Cloudy
10:56 AM 78.1 °F - 61.0 °F 56% 29.93 in 10.0 mi WSW 5.8 mph - N/A   Clear
11:56 AM 79.0 °F - 62.1 °F 56% 29.93 in 5.0 mi SSW 11.5 mph - N/A   Haze
12:56 PM 80.1 °F 81.1 °F 61.0 °F 52% 29.91 in 10.0 mi Variable 6.9 mph - N/A   Clear
1:56 PM 82.0 °F 83.1 °F 63.0 °F 52% 29.90 in 10.0 mi Variable 5.8 mph - N/A   Clear
2:56 PM 82.9 °F 84.0 °F 63.0 °F 51% 29.88 in 10.0 mi West 5.8 mph - N/A   Scattered Clouds
3:56 PM 84.0 °F 85.4 °F 64.0 °F 51% 29.86 in 10.0 mi West 5.8 mph - N/A   Partly Cloudy
4:56 PM 84.0 °F 85.4 °F 64.0 °F 51% 29.85 in 10.0 mi West 5.8 mph - N/A   Clear
5:56 PM 82.0 °F 83.4 °F 64.0 °F 54% 29.83 in 10.0 mi WSW 5.8 mph - N/A   Clear
6:56 PM 80.1 °F 82.1 °F 66.0 °F 62% 29.82 in 10.0 mi SSW 4.6 mph - N/A   Clear
7:56 PM 78.1 °F - 66.9 °F 68% 29.83 in 10.0 mi South 3.5 mph - N/A   Clear
8:44 PM 75.2 °F - 66.2 °F 73% 29.84 in 1.5 mi SSW 4.6 mph - N/A   Haze
8:56 PM 73.9 °F - 68.0 °F 82% 29.82 in 2.5 mi SW 3.5 mph - N/A   Haze
9:06 PM 73.4 °F - 68.0 °F 83% 29.85 in 10.0 mi SW 3.5 mph - N/A   Clear
9:56 PM 73.9 °F - 66.9 °F 79% 29.81 in 10.0 mi Calm Calm - N/A   Clear
10:56 PM 73.0 °F - 66.9 °F 81% 29.82 in 10.0 mi East 3.5 mph - N/A Thunderstorm Overcast
11:17 PM 73.4 °F - 66.2 °F 78% 29.85 in 10.0 mi ENE 10.4 mph - 0.00 in Rain , Thunderstorm Light Rain
11:47 PM 64.4 °F - 62.6 °F 94% 29.93 in 2.5 mi NNW 25.3 mph 34.5 mph 0.57 in Rain , Thunderstorm Heavy Thunderstorms and Rain
11:53 PM 60.8 °F - 60.8 °F 100% 29.93 in 1.2 mi North 18.4 mph 48.3 mph 1.00 in Rain , Thunderstorm Heavy Thunderstorms and Rain
11:56 PM 61.0 °F - 60.1 °F 97% 29.93 in 1.2 mi NNE 12.7 mph 48.3 mph 1.04 in Rain , Thunderstorm Heavy Thunderstorms and Rain